Location: Erlenbrunn
(49.1717°N, 7.6142°E)
Time: 11:21:10
(UTC+00:00)

Cosmos 2369 Rocket - Pass Details

Date: 25 November 2020
Orbit: 829 x 852 km, 71.0° (Epoch: 25 January)

Event Time Altitude Azimuth Distance (km) Brightness Sun altitude
Rises 17:38:12 0° 333° (NNW) 3,428 5.6 -19.1°
Reaches altitude 10° 17:40:47 10° 340° (NNW) 2,487 4.8 -19.5°
Maximum altitude 17:46:16 46° 53° (NE) 1,134 2.4 -20.4°
Enters shadow 17:47:24 41° 85° (E) 1,221 2.5 -20.6°
